Find Starlink 36859

NORAD ID: 68710 Int'l Des: 2026-081 Owner: SPXS Country: US Constellation: starlink operational
LEOCIRCULAR

Aktuelle Ansicht

3D-Globus wird geladen...

Über Starlink 36859

Beschreibung wird geladen...

Nächste Überflüge

Passes for default location (London). Set your location on the main map for personalized predictions.

Höhenverlauf

Loading altitude history...

Zweizeiliger Elementsatz

1 68710U 26081M 26150.83335647 .00001322 00000-0 48806-4 0 9990
2 68710 53.1591 12.5143 0001037 98.3459 125.6586 15.35394300 6050
Epoch: 30. Mai 2026 • Age: 9 hours

Aktueller Status

Höhe 464.2 km
Geschwindigkeit 7.63 km/s
Subsatellitenpunkt -16.15°S, 124.61°W
Startdatum 14. Apr. 2026
Alter 0.1 years
Typ internet

Technische Details

Klassifizierung Payload
Masse 575.00 kg
Trockenmasse 530.00 kg
Gesamtmasse 575.00 kg
Länge 0.30 m
Durchmesser 4.10 m
Spannweite 29.00 m
Form Box + pan
Hersteller SPXS
Bus-Typ Starlink V2MO
Phasenstatus In Orbit
Besitzer/Staat SPXS/US

Most Searched